Location: Sluknov
(51.0170°N, 14.4670°E)
Time: 10:31:44
(UTC+01:00)

ISS - Pass Details

Date: 21 February 2026
Orbit: 416 x 426 km, 51.6° (Epoch: 9 March)

Event Time Altitude Azimuth Distance (km) Brightness Sun altitude
Exits shadow 05:46:16 23° 269° (W) 927 -2.6 -12.8°
Maximum altitude 05:48:12 80° 356° (N) 428 -3.8 -12.5°
Drops below altitude 10° 05:51:33 10° 83° (E) 1,493 0.5 -12.0°
Sets 05:53:38 0° 84° (E) 2,356 2.1 -11.7°
